{"data":{"norad_id":65675,"epoch":"2026-09-20T08:39:29.124864Z","epoch_age_seconds":120556,"freshness":"FRESH","line1":"1 65675U 25211Z   26263.36075376  .00014391  00000+0  44730-3 0  9994","line2":"2 65675  97.2840 303.6204 0001324 100.6054 259.5338 15.33440452 56507","mean_motion":15.33440452,"eccentricity":0.0001324,"inclination_deg":97.284,"raan_deg":303.6204,"arg_perigee_deg":100.6054,"mean_anomaly_deg":259.5338,"bstar":0.0004473,"rev_number":5650,"period_min":93.906483171347,"perigee_km":464.65060111309,"apogee_km":466.46281120648,"semimajor_km":6843.6937061598,"source":"CELESTRAK","updated_at":"2026-09-21T09:00:35.684139Z"}}